This demonstration page uses our WeatherBlox Daily Observations layout. Learn more.

Left ArrowRight Arrow

36.19886, -115.1175

Hourly Observations for November 19, 2021

Temp ( °F °C ) Dew Point ( °F °C ) Humidity (%) Winds ( mph kmh ) Pressure ( in mb ) Visibility ( mi km ) Precip ( " mm )
12:53 am 00:53 Clear 54 12.2 24 -4.4 31 31 NNW 8 13 30.14 1021 10 16 0.00 0.00
1:53 am 01:53 Clear 56 13.3 22 -5.6 27 27 W 3 6 30.13 1020 10 16 0.00 0.00
2:53 am 02:53 Clear 55 12.8 22 -5.6 28 28 NW 3 6 30.13 1020 10 16 0.00 0.00
3:53 am 03:53 Clear 54 12.2 23 -5 30 30 Calm 30.12 1020 10 16 0.00 0.00
4:53 am 04:53 Clear 54 12.2 23 -5 30 30 Calm 30.13 1020 10 16 0.00 0.00
5:53 am 05:53 Clear 54 12.2 25 -3.9 33 33 Calm 30.14 1021 10 16 0.00 0.00
6:53 am 06:53 Sunny 54 12.2 25 -3.9 33 33 N 5 7 30.15 1021 10 16 0.00 0.00
7:53 am 07:53 Sunny 56 13.3 25 -3.9 30 30 NNW 6 9 30.17 1022 10 16 0.00 0.00
8:53 am 08:53 Sunny 60 15.6 22 -5.6 23 23 NNW 5 7 30.18 1022 10 16 0.00 0.00
9:53 am 09:53 Sunny 62 16.7 21 -6.1 21 21 Calm 30.18 1022 10 16 0.00 0.00
10:53 am 10:53 Sunny 64 17.8 21 -6.1 19 19 Calm 30.16 1021 10 16 0.00 0.00
11:53 am 11:53 Sunny 65 18.3 20 -6.7 18 18 Calm 30.12 1020 10 16 0.00 0.00
12:53 pm 12:53 Sunny 66 18.9 20 -6.7 17 17 Calm 30.10 1019 10 16 0.00 0.00
1:53 pm 13:53 Sunny 69 20.6 21 -6.1 16 16 ENE 3 6 30.07 1018 10 16 0.00 0.00
2:53 pm 14:53 Sunny 69 20.6 21 -6.1 16 16 E 5 7 30.05 1018 10 16 0.00 0.00
3:53 pm 15:53 Sunny 68 20 21 -6.1 17 17 Calm 30.05 1018 10 16 0.00 0.00
4:53 pm 16:53 Clear 66 18.9 22 -5.6 19 19 Calm 30.05 1018 10 16 0.00 0.00
5:53 pm 17:53 Clear 63 17.2 23 -5 22 22 W 5 7 30.06 1018 10 16 0.00 0.00
6:53 pm 18:53 Clear 59 15 25 -3.9 27 27 NW 7 11 30.08 1019 10 16 0.00 0.00
7:53 pm 19:53 Clear 57 13.9 24 -4.4 28 28 NW 5 7 30.08 1019 10 16 0.00 0.00
8:53 pm 20:53 Mostly Clear 55 12.8 23 -5 29 29 NW 5 7 30.09 1019 10 16 0.00 0.00
9:53 pm 21:53 Mostly Cloudy 54 12.2 25 -3.9 33 33 NNW 5 7 30.08 1019 10 16 0.00 0.00
10:53 pm 22:53 Clear 53 11.7 24 -4.4 32 32 Calm 30.07 1018 10 16 0.00 0.00
11:53 pm 23:53 Clear 52 11.1 24 -4.4 34 34 NW 6 9 30.07 1018 10 16 0.00 0.00

Powered by AerisWeather